Regional Weather Roundup
Issued by NWS

Home | Current Version | Previous Version | Text Only | Print | Product List | Glossary On
Versions: 1 2 3 4 5 6 7 8 9 10 11 12 13 14 15 16 17 18 19 20 21 22 23 24 25 26 27 28 29 30 31 32 33 34 35 36 37 38 39 40 41 42 43 44 45 46 47 48 49 50
000
ASUS45 KBOU 020707
RWRCO

WEATHER ROUNDUP FOR COLORADO
NATIONAL WEATHER SERVICE DENVER/BOULDER CO
100 AM MDT THU APR 02 2015

NOTE: "FAIR" INDICATES FEW OR NO CLOUDS BELOW 12000 FEET WITH NO
SIGNIFICANT WEATHER AND/OR OBSTRUCTIONS TO VISIBILITY.

COZ001>005-013-030-031-020800-
...NORTHWEST COLORADO...

CITY           SKY/WX    TMP DP  RH WIND       PRES   REMARKS
CRAIG          CLOUDY    38   7  27 VRB6      29.98S
HAYDEN         CLOUDY    34   7  32 SW3       29.97S
MEEKER         CLOUDY    41   5  22 NE6       29.96S
MOUNT WERNER   NOT AVBL
STEAMBOAT SPGS CLOUDY    34  11  38 CALM      29.96S
WALDEN         CLOUDY    30   7  37 N9        29.95F WCI  22
$$

COZ006>008-011-020800-
...WEST CENTRAL VALLEYS...

CITY           SKY/WX    TMP DP  RH WIND       PRES   REMARKS
GRAND JUNCTION CLOUDY    42  12  29 NE3       29.86S
MONTROSE       CLOUDY    45  25  45 SE6       29.89S
EAGLE          CLOUDY    39  19  45 E6        29.93S
RIFLE          CLOUDY    48   6  18 W12       29.91R
DELTA          NOT AVBL
NUCLA          CLOUDY    43  21  42 SE5       29.91F
$$

COZ017>023-064>068-020800-
...SOUTHWEST COLORADO...

CITY           SKY/WX    TMP DP  RH WIND       PRES   REMARKS
DURANGO        PTCLDY    38  21  50 N8        29.93R
CORTEZ         CLOUDY    41  17  38 E6        29.90R
PAGOSA SPRINGS MOCLDY    38  19  48 CALM      29.97S
TELLURIDE      NOT AVBL
WOLF CREEK PAS MOCLDY    28  10  47 SW20G26   30.11F WCI  15
$$

COZ009-010-012-014-032>034-037-058>063-020800-
...CENTRAL COLORADO...

CITY           SKY/WX    TMP DP  RH WIND       PRES   REMARKS
ASPEN          CLOUDY    35  25  66 CALM      29.92S
BUENA VISTA    CLOUDY    39  24  54 E8        29.95S
COPPER MTN     CLOUDY    30   0  27 S9        30.02F WCI  22
BERTHOUD PASS  FAIR      21  14  73 W22G36    30.03F WCI   5
COTTONWOOD PAS CLOUDY    34  23  64 W9G17     30.00S WCI  26
GUNNISON       CLOUDY    37  28  70 NW5       29.98S
KREMMLING      CLOUDY    34  12  40 NW3       29.96S
LEADVILLE      CLOUDY    30  14  51 CALM      29.97F
SALIDA         CLOUDY    38  27  62 CALM      30.02S
SUNLIGHT       CLOUDY    30   3  31 W5        30.04S WCI  25
WILKERSON PASS MOCLDY    28  14  54 SW7       30.05F WCI  21
$$

COZ069>075-020800-
...SAN LUIS VALLEY/SANGRE DE CRISTO MOUNTAINS...

CITY           SKY/WX    TMP DP  RH WIND       PRES   REMARKS
ALAMOSA        MOCLDY    34  21  59 S3        29.95S
LA VETA PASS   MOCLDY    34  14  44 S9        30.05S WCI  26
SAGUACHE       CLOUDY    39  23  52 CALM      29.96S
$$

COZ035-036-038>040-020800-
...NORTHERN COLORADO FRONT RANGE...

CITY           SKY/WX    TMP DP  RH WIND       PRES   REMARKS
DENVER INTL AP PTCLDY    36  30  79 N8        29.94R
DMNS CITY PARK   N/A     42  30  62 N10       29.94R
AURORA         PTCLDY    38  36  92 NE7       29.95R
FRONT RANGE AP CLEAR     36  32  87 CALM      29.94S
ERIE MUNI ARPT PTCLDY    41  31  68 NE9       29.94S
BOULDER MUN AP CLOUDY    43  30  61 N9        29.95R
CENTENNIAL     PTCLDY    41  37  86 CALM      29.94R
BROOMFIELD     PTCLDY    41  30  65 NE10      29.95S
FORT COLLINS   PTCLDY    37  25  60 N10       29.96F
LONGMONT       PTCLDY    43  29  59 NE12      29.97R
$$

COZ041-046-047-076>085-087-088-020800-
...PIKES PEAK/PALMER DIVIDE AND SOUTHERN FOOTHILLS...

CITY           SKY/WX    TMP DP  RH WIND       PRES   REMARKS
COLO. SPRINGS  MOCLDY    42  33  70 CALM      29.92R
A. F. ACADEMY  PTCLDY    42  33  71 N13       29.92R
ELLICOTT       NOT AVBL
FALCON         MOCLDY    39  36  89 N9        29.94R
FORT CARSON    PTCLDY    42  35  76 S3        29.89R
LIMON          PTCLDY    36  33  89 N9        29.90R
MONUMENT HILL  MOCLDY    34  32  93 CALM      29.94S
TRINIDAD       PTCLDY    42  25  50 NW7       29.90S
$$

COZ042>045-048>051-090-091-020800-
...NORTHEAST COLORADO...

CITY           SKY/WX    TMP DP  RH WIND       PRES   REMARKS
GREELEY ARPT   PTCLDY    37  21  52 N14       29.93R
AKRON          PTCLDY    36  33  89 N12       29.90R
BURLINGTON     CLEAR     44  39  82 N9        29.86R
WRAY           MOCLDY    43  35  74 N14       29.86R
STERLING       PTCLDY    36  32  87 N9        29.91R
HOLYOKE        MOCLDY    41  32  70 N12       29.89R
FORT MORGAN    PTCLDY    38  23  53 N13       29.92R
$$

COZ086-089-092>099-020800-
...SOUTHEAST COLORADO...

CITY           SKY/WX    TMP DP  RH WIND       PRES   REMARKS
PUEBLO         PTCLDY    45  35  68 CALM      29.88R
LA JUNTA       PTCLDY    47  37  68 MISG      29.86R
LAMAR          CLEAR     44  36  73 W3        29.82R
SPRINGFIELD      N/A     43  35  73 NW8       29.84R
$$



USA.gov is the U.S. government's official web portal to all federal, state and local government web resources and services.